Flag for Hong Kong Weather past 2 weeks in Hong Kong, Hong Kong

Now
82 °F

Passing clouds.


Feels Like: 89 °F
Forecast: 79 / 84 °F
Wind: 7 mph from Southwest

Location: National Airport

Current Time: Aug 29, 2015 at 8:32:43 AM

Latest Report: Aug 29, 2015 at 8:00 AM


Visibility: N/A

Pressure: 29.71 "Hg

Humidity: 79%

Dew point: 75 °F

Location of Hong KongLocation

Historic Weather in Hong Kong — Graph

°F

Hong Kong temperature yesterday

Maximum temperature yesterday: 88 °F (at 1:00 PM)
Minimum temperature yesterday: 81 °F (at 3:30 AM)
Average temperature yesterday: 84 °F

Past Weeks' High & Low Weather Summary

 TemperatureHumidityPressure
High95 °F (Aug 24, 4:30 PM)94% (Aug 14, 6:00 PM)29.80 "Hg (Aug 14, 6:00 PM)
Low77 °F (Aug 14, 6:00 PM)39% (Aug 24, 4:30 PM)29.47 "Hg (Aug 22, 4:00 PM)
Average86 °F72%29.69 "Hg
* Reported Aug 14 7:00 AM — Aug 29 7:30 AM, Hong Kong, Weather by CustomWeather, © 2015

Note: Actual official high and low records may vary slightly from our data, if they occured in-between our weather recording intervals... More about our weather records

Advertising

Hong Kong weather history for previous 24 hours

 ConditionsComfort  
Time TempWeatherWind HumidityBarometerVisibility
7:30 AM
Sat, Aug 29
82 °FScattered clouds.6 mph84%29.71 "HgN/A
7:00 AM81 °FScattered clouds.5 mph89%29.71 "HgN/A
6:00 AM81 °FPassing clouds.3 mph79%29.68 "HgN/A
5:00 AM82 °FPassing clouds.1 mph89%29.68 "HgN/A
4:30 AM84 °FPassing clouds.2 mph84%29.68 "HgN/A
4:00 AM82 °FPassing clouds.3 mph89%29.68 "HgN/A
3:30 AM82 °FPassing clouds.7 mph89%29.68 "HgN/A
3:00 AM82 °FSprinkles. Passing clouds.7 mph89%29.68 "HgN/A
2:30 AM82 °FSprinkles. Passing clouds.5 mph89%29.68 "HgN/A
2:00 AM82 °FPassing clouds.3 mph84%29.68 "HgN/A
1:30 AM84 °FPassing clouds.3 mph79%29.71 "HgN/A
1:00 AM84 °FPassing clouds.3 mph79%29.71 "HgN/A
12:30 AM84 °FPassing clouds.3 mph79%29.71 "HgN/A
12:00 AM84 °FPassing clouds.6 mph79%29.71 "HgN/A
11:30 PM
Fri, Aug 28
84 °FPassing clouds.2 mph79%29.71 "HgN/A
11:00 PM82 °FPassing clouds.3 mph84%29.74 "HgN/A
10:30 PM84 °FPassing clouds.5 mph79%29.74 "HgN/A
10:00 PM84 °FPassing clouds.5 mph79%29.74 "HgN/A
9:30 PM84 °FPassing clouds.5 mph74%29.74 "HgN/A
9:00 PM84 °FPassing clouds.3 mph74%29.74 "HgN/A
8:30 PM84 °FPassing clouds.3 mph74%29.71 "HgN/A
8:00 PM84 °FPassing clouds.5 mph74%29.71 "HgN/A
7:30 PM84 °FPassing clouds.6 mph74%29.68 "HgN/A
7:00 PM84 °FPassing clouds.8 mph74%29.68 "HgN/A
6:30 PM84 °FScattered clouds.5 mph74%29.68 "HgN/A
6:00 PM84 °FScattered clouds.5 mph70%29.68 "HgN/A
5:30 PM84 °FPassing clouds.7 mph74%29.68 "HgN/A
5:00 PM84 °FPassing clouds.7 mph70%29.65 "HgN/A
4:30 PM84 °FPassing clouds.12 mph70%29.65 "HgN/A
4:00 PM86 °FPassing clouds.13 mph66%29.65 "HgN/A
3:30 PM88 °FPassing clouds.10 mph62%29.65 "HgN/A
3:00 PM88 °FPassing clouds.13 mph66%29.65 "HgN/A
2:30 PM86 °FPassing clouds.15 mph70%29.68 "HgN/A
2:00 PM86 °FScattered clouds.16 mph70%29.68 "HgN/A
1:30 PM88 °FScattered clouds.12 mph70%29.68 "HgN/A
1:00 PM88 °FScattered clouds.10 mph66%29.68 "HgN/A
12:30 PM86 °FScattered clouds.9 mph75%29.71 "HgN/A
12:00 PM84 °FPassing clouds.6 mph74%29.71 "HgN/A
11:00 AM86 °FPassing clouds.5 mph70%29.74 "HgN/A
10:30 AM84 °FPassing clouds.3 mph74%29.74 "HgN/A
10:00 AM84 °FSprinkles. Scattered clouds.3 mph74%29.74 "HgN/A
9:30 AM84 °FPassing clouds.5 mph74%29.74 "HgN/A
9:00 AM84 °FPassing clouds.3 mph74%29.74 "HgN/A
8:30 AM86 °FPassing clouds.6 mph75%29.74 "HgN/A
8:00 AM84 °FPassing clouds.3 mph74%29.74 "HgN/A
Weather by CustomWeather, © 2015

See weather overviewHow to use our weather pages